DECAYED

COSMOS 2251 DEB, 39552 (Decayed)

Orbit data source: Space-Track

COSMOS 2251 DEB, 39552 was space debris in LEO originally from a launch on Wed, 16 Jun 1993 UTC launched from the Plesetsk Missile And Space Complex (PKMTR). The debris from Iridium 33, an American commercial communications satellite, has been tracked extensively since its accidental collision with the defunct Russian satellite Cosmos 2251 in 2009. This event, occurring at high speed in low Earth orbit (LEO), generated thousands of pieces of space debris, significantly increasing the risk of further collisions. The Iridium 33 debris cloud has impacted space traffic management and orbital debris mitigation strategies, making it a subject of ongoing study in space situational awareness.

Not visible in the next 10 days
Identifier
39552, 1993-036BUJ
Orbit
Decayed
Country
Flag of CISCIS
Related business
Manufacturer
Unknown
Mission
Decayed spacecraft
Bus & Motor
Unknown
Mass
Unknown
Launch date (UTC)
1993-06-16 (33 years ago)
Launch vehicle
Unknown
Launch site
Plesetsk Missile And Space Complex (PKMTR)
Object type
Payload
Rocket body
Debris
Shape & HBR
Unknown shape, 0.1 m
Radar Cross Section
Small (<0.1 m²)

Expand to show TLE details & history
Last TLE update: 2 years ago

TLE from 2 years ago
0 COSMOS 2251 DEB
1 39552U 93036BUJ 25002.90669788  .04206827  29281-1  15130-1 0  9990
2 39552  73.9648  84.8235 0023498 346.5531  13.5075 15.93450479710383
Epoch: 2025-01-02T21:45Z
TLE epoch observation values (Epoch: 2025-01-02T21:45:38.696Z)
Latitude
-0.00001°
Longitude
15.63336°
Altitude
280.188 km
Speed
7.748 km/s
True Right ascension
05h 39m 17s
True Declination
0° 00' 00"
Sunlit
Object was in full shadow at epoch
Visualization orbit readout
Latitude
Unknown
Longitude
Unknown
Altitude
Unknown
Speed
Unknown
Apparent Right ascension
Unknown
Apparent Declination
Unknown
Sunlit
N/A
Visualization observer readout
Local Sidereal Time
05:17:45
Azimuth
Unknown
Elevation
Unknown
Doppler factor
Unknown
Orbital elements
Apogee altitude
305.764 km
Perigee altitude
274.426 km
Semi-major axis
6,668.232 km
Eccentricity
0.00235
Inclination
73.9648°
RAAN
84.8235°
Arg. of periapsis
346.5531°
True anomaly
13.57057°
Mean anomaly
13.5075°
Eccentric anomaly
13.53902°
Mean motion
3.98591 °/min
Orbital period
90.32 mins
BSTAR
0.01513
Loading maneuver chart data...
Computing Atmospheric mass density...
Loading historical data...
Loading historical data...
Loading historical data...
Loading historical data...
Loading historical data...
Loading historical data...
Loading historical data...

Documentation

Showing up to 5 results
|